Regional Weather Roundup
Issued by NWS Kansas City/Pleasant Hill, MO

Home | Current Version | Previous Version | Graphics & Text | Print | Product List | Glossary Off
Versions: 1 2 3 4 5 6 7 8 9 10 11 12 13 14 15 16 17 18 19 20 21 22 23 24 25 26 27 28

000
ASUS43 KEAX 222010
RWREAX

WEATHER ROUNDUP FOR EASTERN KANSAS AND NORTHWEST MISSOURI
NATIONAL WEATHER SERVICE KANSAS CITY/PLEASANT HILL MO
300 PM CDT TUE AUG 22 2017

KSZ040-057-103>105-MOZ028-029-037-043-222100-
...KANSAS CITY METROPOLITAN AREA...

CITY           SKY/WX    TMP DP  RH WIND       PRES   REMARKS
K.C. INTL      PTSUNNY   78  65  63 N10       30.12F
K.C. DOWNTOWN  MOSUNNY   79  64  60 N10       30.09F
LEES SUMMIT    NOT AVBL
OLATHE - IXD   SUNNY     79  66  64 NW13      30.12S
OLATHE - OJC   SUNNY     80  63  55 N10       30.11F
LAWRENCE       MOSUNNY   80  65  59 N10       30.12S

$$

MOZ001>008-011>017-020>025-030>033-038>040-044>046-053-054-222100-
...NORTHERN AND CENTRAL MISSOURI...

CITY           SKY/WX    TMP DP  RH WIND       PRES   REMARKS
ST. JOSEPH     SUNNY     77  60  55 N14G24    30.12F
MOSBY          PTCLDY    79  61  53 NW8       30.10F
WARRENSBURG    SUNNY     79  64  61 NW12      30.08F
WHITEMAN AFB   MOSUNNY   79  68  68 N10       30.07F
CLINTON        PTSUNNY   79  70  73 N9        30.08F
SEDALIA        MOSUNNY   83  69  62 N8        30.09F
WARSAW         NOT AVBL
CHILLICOTHE      N/A     80  59  48 NW9       30.10S
KIRKSVILLE     SUNNY     80  57  45 N14       30.08S

$$

MOZ041-047>049-056>058-063>065-088>090-097-222100-
...EASTERN AND SOUTHERN MISSOURI...

CITY           SKY/WX    TMP DP  RH WIND       PRES   REMARKS
ST. LOUIS INTL PTSUNNY   81  69  67 NW12      30.01F
SPIRIT OF STL  PTSUNNY   81  69  67 W8G20     30.00F
COLUMBIA       MOSUNNY   81  67  62 NW14      30.06F
JEFFERSON CITY MOSUNNY   81  70  69 NW10      30.04F
ROLLA          PTSUNNY   77  69  76 N13       30.06F
OSAGE BEACH    MOSUNNY   80  68  66 NW8       30.07F
SPRINGFIELD    SUNNY     83  70  64 N9        30.07S
BRANSON        PTSUNNY   77  68  73 SW3       30.08F
JOPLIN         PTSUNNY   84  73  69 VRB5      30.07F HX  90
WEST PLAINS    CLOUDY    79  68  69 NW8       30.07S

$$

IAZ060-094-KSZ022-034>040-054-083-096-NEZ052-066-093-222100-
...KANSAS...SOUTHEAST NEBRASKA AND IOWA...

CITY           SKY/WX    TMP DP  RH WIND       PRES   REMARKS
TOPEKA         MOSUNNY   80  67  64 N6        30.12F
MANHATTAN      SUNNY     83  53  35 N13G21    30.14S
EMPORIA        SUNNY     82  59  45 NE14      30.12F
CHANUTE        CLOUDY    79  70  74 NE8       30.11S
WICHITA        CLOUDY    82  69  64 E17       30.11F
OMAHA          MOSUNNY   76  50  40 N10       30.17S
LINCOLN        SUNNY     77  53  43 N10       30.20F
FALLS CITY     SUNNY     76  52  43 NW14G20   30.14F
LAMONI         SUNNY     77  51  40 NW10G23   30.12R
DES MOINES     MOSUNNY   78  50  37 NW14G22   30.10S

$$





USA.gov is the U.S. government's official web portal to all federal, state and local government web resources and services.